This is the latest recevied weather packets stored in our database for station/object N7WSS. If no packets are shown the sender has not sent any weather packets the latest 10 day(s).
| Time | Temp. | Humidity | Pressure | Rain* | Wind** | Luminosity | Snow |
|---|---|---|---|---|---|---|---|
| 1788555379 | 33.89° C | 36% | 1012.7 hPa | 0 mm | - | - | - |
| 1788555075 | 35° C | 36% | 1012.9 hPa | 0 mm | - | - | - |
| 1788554770 | 35° C | 37% | 1012.9 hPa | 0 mm | - | - | - |
| 1788554467 | 35° C | 37% | 1012.9 hPa | 0 mm | - | - | - |
| 1788554162 | 35° C | 37% | 1013 hPa | 0 mm | - | - | - |
| 1788553858 | 35° C | 38% | 1013.2 hPa | 0 mm | - | - | - |
| 1788553554 | 33.89° C | 39% | 1013.5 hPa | 0 mm | - | - | - |
| 1788553251 | 33.33° C | 40% | 1013.3 hPa | 0 mm | - | - | - |
| 1788552950 | 32.22° C | 41% | 1013.5 hPa | 0 mm | - | - | - |
| 1788552646 | 32.22° C | 43% | 1013.6 hPa | 0 mm | - | - | - |
| 1788552344 | 32.22° C | 43% | 1013.7 hPa | 0 mm | - | - | - |
| 1788552040 | 32.78° C | 42% | 1013.6 hPa | 0 mm | - | - | - |
| 1788551738 | 34.44° C | 40% | 1013.8 hPa | 0 mm | - | - | - |
| 1788551438 | 34.44° C | 40% | 1013.8 hPa | 0 mm | - | - | - |
| 1788551133 | 33.33° C | 41% | 1013.7 hPa | 0 mm | - | - | - |
| 1788550828 | 32.78° C | 42% | 1013.9 hPa | 0 mm | - | - | - |
| 1788550528 | 32.78° C | 41% | 1014 hPa | 0 mm | - | - | - |
| 1788550225 | 32.22° C | 43% | 1014.1 hPa | 0 mm | - | - | - |
| 1788549924 | 33.33° C | 41% | 1014.1 hPa | 0 mm | - | - | - |
| 1788549620 | 33.33° C | 41% | 1014.2 hPa | 0 mm | - | - | - |
| 1788549316 | 33.33° C | 42% | 1014.1 hPa | 0 mm | - | - | - |
| 1788549013 | 32.78° C | 42% | 1014.3 hPa | 0 mm | - | - | - |
| 1788548708 | 33.33° C | 43% | 1014.3 hPa | 0 mm | - | - | - |
| 1788548404 | 32.78° C | 43% | 1014.5 hPa | 0 mm | - | - | - |
| 1788548100 | 33.33° C | 43% | 1014.5 hPa | 0 mm | - | - | - |
* Rain latest hour (hover to see other rain measurements)
** Current wind speed in m/s (hover to see current wind gust speed)